When you browse on this site, cookies collect data to enhance your experience and personalize the content and advertising you see.
Visit our Privacy Policy to learn more. By continuing to use the site, you agree to this use of cookies and data.
  • In Hungary
  • List of Countries
  • For 7 days
  • Water Temperature
  • Satellite Maps
  • Weather Map
  • News
  • Weather Widgets
  • user-avatar
    Login

    Hourly Weather Cieza

    Today, 16 June, Sunday

    Time Temperature Precipitation Wind Pressure Humidity
    00:00 +21°C° 0 mm 0 mps 749 mmHg 46%
    01:00 +20°C° 0 mm 0 mps 749 mmHg 47%
    02:00 +20°C° 0 mm 0 mps 749 mmHg 49%
    03:00 +19°C° 0 mm 0 mps 748 mmHg 50%
    04:00 +22°C° 0 mm 1 mps 749 mmHg 49%
    05:00 +22°C° 0 mm 1 mps 749 mmHg 49%
    06:00 +21°C° 0 mm 2 mps 749 mmHg 48%
    07:00 +24°C° 0 mm 2 mps 749 mmHg 45%
    08:00 +25°C° 0 mm 2 mps 749 mmHg 41%
    09:00 +26°C° 0 mm 2 mps 750 mmHg 38%
    10:00 +27°C° 0 mm 3 mps 749 mmHg 36%
    11:00 +28°C° 0 mm 4 mps 749 mmHg 34%
    12:00 +29°C° 0 mm 4 mps 749 mmHg 31%
    13:00 +29°C° 0 mm 5 mps 749 mmHg 34%
    14:00 +29°C° 0 mm 5 mps 748 mmHg 36%
    15:00 +29°C° 0 mm 6 mps 748 mmHg 38%
    16:00 +28°C° 0 mm 5 mps 748 mmHg 40%
    17:00 +27°C° 0 mm 5 mps 748 mmHg 41%
    18:00 +26°C° 0 mm 4 mps 748 mmHg 43%
    19:00 +25°C° 0 mm 3 mps 748 mmHg 48%
    20:00 +24°C° 0 mm 2 mps 748 mmHg 53%
    21:00 +23°C° 0 mm 1 mps 749 mmHg 58%
    22:00 +22°C° 0 mm 1 mps 749 mmHg 60%
    23:00 +22°C° 0 mm 1 mps 749 mmHg 62%

    Tomorrow, 17 June, Monday

    Time Temperature Precipitation Wind Pressure Humidity
    00:00 +21°C° 0 mm 1 mps 748 mmHg 64%
    01:00 +18°C° 0 mm 0 mps 748 mmHg 65%
    02:00 +18°C° 0 mm 0 mps 748 mmHg 66%
    03:00 +17°C° 0 mm 0 mps 748 mmHg 68%
    04:00 +18°C° 0 mm 0 mps 748 mmHg 63%
    05:00 +19°C° 0 mm 0 mps 748 mmHg 58%
    06:00 +20°C° 0 mm 0 mps 748 mmHg 53%
    07:00 +22°C° 0 mm 0 mps 748 mmHg 46%
    08:00 +26°C° 0 mm 1 mps 748 mmHg 40%
    09:00 +28°C° 0 mm 1 mps 748 mmHg 33%
    10:00 +29°C° 0 mm 1 mps 748 mmHg 29%
    11:00 +31°C° 0 mm 2 mps 748 mmHg 25%
    12:00 +33°C° 0 mm 3 mps 748 mmHg 21%
    13:00 +34°C° 0 mm 4 mps 747 mmHg 21%
    14:00 +34°C° 0 mm 5 mps 747 mmHg 22%
    15:00 +35°C° 0 mm 6 mps 746 mmHg 22%
    16:00 +34°C° 0 mm 6 mps 746 mmHg 24%
    17:00 +32°C° 0 mm 6 mps 746 mmHg 26%
    18:00 +30°C° 0 mm 6 mps 746 mmHg 27%
    19:00 +29°C° 0 mm 4 mps 746 mmHg 34%
    20:00 +27°C° 0 mm 3 mps 747 mmHg 40%
    21:00 +25°C° 0 mm 2 mps 747 mmHg 46%
    22:00 +24°C° 0 mm 2 mps 747 mmHg 49%
    23:00 +23°C° 0 mm 2 mps 747 mmHg 52%

    Day after tomorrow, 18 June, Tuesday

    Time Temperature Precipitation Wind Pressure Humidity
    00:00 +22°C° 0 mm 1 mps 747 mmHg 55%
    01:00 +22°C° 0 mm 1 mps 747 mmHg 56%
    02:00 +19°C° 0 mm 0 mps 747 mmHg 58%
    03:00 +18°C° 0 mm 0 mps 746 mmHg 60%
    04:00 +19°C° 0 mm 0 mps 746 mmHg 56%
    05:00 +20°C° 0 mm 0 mps 747 mmHg 52%
    06:00 +21°C° 0 mm 0 mps 747 mmHg 49%
    07:00 +23°C° 0 mm 0 mps 747 mmHg 42%
    08:00 +27°C° 0 mm 1 mps 747 mmHg 35%
    09:00 +29°C° 0 mm 2 mps 747 mmHg 27%
    10:00 +30°C° 0 mm 3 mps 747 mmHg 25%
    11:00 +33°C° 0 mm 4 mps 747 mmHg 22%
    12:00 +34°C° 0 mm 5 mps 746 mmHg 19%
    13:00 +35°C° 0 mm 6 mps 746 mmHg 20%
    14:00 +35°C° 0 mm 7 mps 746 mmHg 20%
    15:00 +35°C° 0 mm 8 mps 745 mmHg 21%
    16:00 +34°C° 0 mm 7 mps 745 mmHg 23%
    17:00 +33°C° 0 mm 6 mps 745 mmHg 25%
    18:00 +32°C° 0 mm 6 mps 745 mmHg 27%
    19:00 +29°C° 0 mm 4 mps 745 mmHg 33%
    20:00 +27°C° 0 mm 3 mps 746 mmHg 39%
    21:00 +25°C° 0 mm 2 mps 746 mmHg 45%
    22:00 +24°C° 0 mm 1 mps 746 mmHg 49%
    23:00 +23°C° 0 mm 1 mps 746 mmHg 53%

    19 June, Wednesday

    Time Temperature Precipitation Wind Pressure Humidity
    00:00 +20°C° 0 mm 0 mps 746 mmHg 56%
    01:00 +20°C° 0 mm 0 mps 746 mmHg 58%
    02:00 +19°C° 0 mm 0 mps 746 mmHg 60%
    03:00 +19°C° 0 mm 0 mps 745 mmHg 62%
    04:00 +20°C° 0 mm 0 mps 746 mmHg 56%
    05:00 +23°C° 0 mm 1 mps 746 mmHg 50%
    06:00 +24°C° 0 mm 1 mps 746 mmHg 45%
    07:00 +26°C° 0 mm 1 mps 746 mmHg 38%
    08:00 +28°C° 0 mm 2 mps 747 mmHg 31%
    09:00 +30°C° 0 mm 2 mps 747 mmHg 25%
    10:00 +31°C° 0 mm 2 mps 746 mmHg 22%
    11:00 +33°C° 0 mm 1 mps 746 mmHg 20%
    12:00 +32°C° 0 mm 0 mps 746 mmHg 18%
    13:00 +35°C° 0 mm 1 mps 746 mmHg 17%
    14:00 +36°C° 0 mm 2 mps 745 mmHg 17%
    15:00 +37°C° 0 mm 3 mps 745 mmHg 16%
    16:00 +36°C° 0 mm 3 mps 745 mmHg 20%
    17:00 +35°C° 0 mm 4 mps 745 mmHg 23%
    18:00 +34°C° 0 mm 5 mps 745 mmHg 27%
    19:00 +31°C° 0 mm 3 mps 745 mmHg 31%
    20:00 +29°C° 0 mm 2 mps 745 mmHg 36%
    21:00 +27°C° 0 mm 1 mps 745 mmHg 40%
    22:00 +26°C° 0 mm 1 mps 745 mmHg 43%
    23:00 +26°C° 0 mm 1 mps 745 mmHg 46%

    20 June, Thursday

    Time Temperature Precipitation Wind Pressure Humidity
    00:00 +25°C° 0 mm 1 mps 745 mmHg 49%
    01:00 +24°C° 0 mm 1 mps 745 mmHg 49%
    02:00 +24°C° 0 mm 1 mps 745 mmHg 49%
    03:00 +24°C° 0 mm 1 mps 744 mmHg 50%
    04:00 +24°C° 0 mm 1 mps 745 mmHg 47%
    05:00 +25°C° 0 mm 1 mps 745 mmHg 44%
    06:00 +26°C° 0 mm 1 mps 745 mmHg 42%
    07:00 +28°C° 0 mm 2 mps 745 mmHg 37%
    08:00 +30°C° 0 mm 2 mps 745 mmHg 33%
    09:00 +31°C° 0 mm 2 mps 745 mmHg 28%
    10:00 +34°C° 0 mm 2 mps 745 mmHg 26%
    11:00 +35°C° 0 mm 2 mps 745 mmHg 23%
    12:00 +36°C° 0 mm 2 mps 745 mmHg 21%
    13:00 +37°C° 0 mm 3 mps 744 mmHg 22%
    14:00 +37°C° 0 mm 4 mps 744 mmHg 24%
    15:00 +38°C° 0 mm 6 mps 744 mmHg 25%
    16:00 +36°C° 0 mm 5 mps 743 mmHg 28%
    17:00 +35°C° 0 mm 5 mps 743 mmHg 31%
    18:00 +34°C° 0 mm 4 mps 743 mmHg 34%
    19:00 +31°C° 0 mm 3 mps 743 mmHg 40%
    20:00 +29°C° 0 mm 3 mps 744 mmHg 46%
    21:00 +27°C° 0 mm 2 mps 744 mmHg 53%
    22:00 +27°C° 0 mm 1 mps 744 mmHg 57%
    23:00 +26°C° 0 mm 1 mps 744 mmHg 61%

    21 June, Friday

    Time Temperature Precipitation Wind Pressure Humidity
    00:00 +25°C° 0 mm 1 mps 744 mmHg 66%
    01:00 +24°C° 0 mm 1 mps 744 mmHg 64%
    02:00 +24°C° 0 mm 1 mps 744 mmHg 62%
    03:00 +24°C° 0 mm 1 mps 743 mmHg 60%
    04:00 +25°C° 0 mm 1 mps 744 mmHg 57%
    05:00 +25°C° 0 mm 1 mps 744 mmHg 54%
    06:00 +26°C° 0 mm 2 mps 744 mmHg 51%
    07:00 +27°C° 0 mm 2 mps 745 mmHg 48%
    08:00 +28°C° 0 mm 3 mps 745 mmHg 46%
    09:00 +29°C° 0 mm 4 mps 745 mmHg 43%
    10:00 +30°C° 0 mm 4 mps 745 mmHg 43%
    11:00 +30°C° 0 mm 4 mps 745 mmHg 42%
    12:00 +32°C° 0 mm 4 mps 745 mmHg 42%
    13:00 +32°C° 0 mm 4 mps 744 mmHg 41%
    14:00 +33°C° 0 mm 4 mps 744 mmHg 41%
    15:00 +33°C° 0 mm 4 mps 743 mmHg 40%
    16:00 +32°C° 0 mm 4 mps 743 mmHg 45%
    17:00 +30°C° 0 mm 5 mps 743 mmHg 49%
    18:00 +29°C° 0 mm 5 mps 743 mmHg 54%
    19:00 +27°C° 0 mm 4 mps 744 mmHg 61%
    20:00 +26°C° 0 mm 3 mps 744 mmHg 67%
    21:00 +24°C° 0 mm 2 mps 745 mmHg 74%
    22:00 +23°C° 0 mm 2 mps 745 mmHg 76%
    23:00 +23°C° 0 mm 1 mps 745 mmHg 78%
    Show more